Weather in Kaylastuy

Russia / Zabaykalsky Krai     49°49′53″N   118°24′00″E
temp.,
°C
wind,
m/s
gust,
m/s
humid.,
%
clouds,
%
prec.,
mm/h
press.,
hPa
HPBL,
m
12 may, wed
wed1200:00+6ene4587100 1.7 992778
03:00+6n5688100 4.6 994892
06:00+5nnw101490100 3.3 9961060
09:00+7nnw111569100 3.6 9981059
12:00+11nnw111547100 0.0 10001722
15:00+15nnw10132997 0.0 10002525
18:00+15nnw6123367 0.0 10013136
21:00+11w454576 0.0 100373
13 may, thu
thu1300:00+8w35520 0.0 100567
03:00+7wsw33540 0.0 100623
06:00+7wsw37600 0.0 1007112
09:00+12w454786 0.0 1007540
12:00+15w463979 0.0 10061502
15:00+17sw583448 0.0 10042356
18:00+15nnw434596 0.0 1002562
21:00+9nnw71069100 0.5 1006681
14 may, fri
fri1400:00+7nne4781100 1.2 1006335
03:00+6w2483100 1.3 1006120
06:00+6wsw4670100 0.0 1006358
09:00+9wnw5647100 0.0 1007707
12:00+11wnw772976 0.0 10062271
15:00+13wnw6725100 0.0 10052515
18:00+14wnw673288 0.0 10052367
21:00+10nw35443 0.0 100794
15 may, sat
sat1500:00+8w34535 0.0 100957
03:00+6w48640 0.0 1009153
06:00+5w48681 0.0 1011174
09:00+10nw68470 0.0 10111034
12:00+14nw68355 0.0 10101917
15:00+17nw67296 0.0 10092440
18:00+18wnw67275 0.0 10092700
21:00+13w48390 0.0 1010116
16 may, sun
sun1600:00+11wsw45430 0.0 101161
03:00+10wsw44430 0.0 101159
06:00+8sw45470 0.0 101272
09:00+15wsw45290 0.0 1011378
12:00+21wsw58160 0.0 10093023
15:00+22w791521 0.0 10073432
18:00+22wnw79160 0.0 10063259
21:00+17w34250 0.0 100746